Location: Newark
(42.7133°N, 87.7910°W)
Time: 09:26:25
(UTC+00:00)

OTV 5 (USA 277) - Visible Passes

Search period start: 21 August 2019 00:00
Search period end: 31 August 2019 00:00
Orbit: 305 x 329 km, 54.5° (Epoch: 20 August)

Date Brightness Start Highest point End Pass type
(mag) Time Alt. Az. Time Alt. Az. Time Alt. Az.
21 Aug ? 08:29:39 14° NNE 08:29:56 14° NNE 08:31:26 10° ENE visible
21 Aug ? 10:01:55 10° NW 10:04:34 79° SW 10:07:11 10° SE visible
22 Aug ? 08:45:19 22° NE 08:45:19 22° NE 08:46:58 10° E visible
22 Aug ? 10:16:45 10° WNW 10:19:00 25° SW 10:21:15 10° SSE visible
23 Aug ? 09:01:43 12° ESE 09:01:43 12° ESE 09:01:59 10° ESE visible
24 Aug ? 01:18:14 10° SSE 01:19:50 15° SE 01:21:24 10° E visible
24 Aug ? 02:51:21 10° WSW 02:52:24 19° W 02:52:24 19° W visible
25 Aug ? 01:31:39 10° SSW 01:34:12 39° SE 01:36:45 10° ENE visible
25 Aug ? 03:06:34 10° WNW 03:07:59 18° NW 03:07:59 18° NW visible
26 Aug ? 01:46:02 10° WSW 01:48:43 66° NW 01:51:24 10° NE visible
26 Aug ? 03:22:20 10° NW 03:22:57 12° NNW 03:22:57 12° NNW visible
27 Aug ? 02:01:00 10° W 02:03:22 27° NNW 02:05:44 10° NNE visible
28 Aug ? 02:16:27 10° WNW 02:18:09 15° NNW 02:19:50 10° NNE visible
30 Aug ? 01:10:45 10° WNW 01:12:51 20° NNW 01:14:56 10° NNE visible
